[[{"header":{"parameterUnit":"m.s-1","parameterCategory":1,"la1":30.2991,"la2":30.254,"lo1":-89.0895,"lo2":-89.0444,"dy":0.0017,"dx":0.0017,"nx":28,"ny":28,"refTime":"2025-04-25T09:00:00:Z","depth":0,"parameterNumber":2,"parameterNumberName":"U-component_of_WINDS"},"data":[0,0,0,0,0,0,0,0,0,0,0,0,0,0,0,0,0,0,0,0,0,0,0,0,0,0,0,0,0,0,0,0,0,0,0,0,0,0,0,0,0,0,0,0,0,0,0,0,0,0,0,0,0,0,0,0,0,0,0.0915,0.0915,0,0.092,0.0921,0.0921,0.0924,0.0924,0.0924,0.0924,0.0929,0.0929,0.0929,0,0,0,0,0,0,0,0,0,0,0,0,0,0.0906,0.0906,0.0915,0.0915,0.0915,0.092,0.0921,0.0921,0.0924,0.0924,0.0924,0.0924,0.0929,0.0929,0.0929,0,0,0,0,0,0,0,0,0,0,0,0,0,0.0911,0.0907,0.0915,0.0917,0.0918,0.092,0.0921,0.0921,0.0924,0.0924,0.0924,0.0924,0.0929,0.0929,0.0929,0.093,0,0,0.093,0.093,0,0,0,0,0,0,0,0,0.0911,0.0911,0.0917,0.0917,0.0917,0.0921,0.0919,0.0924,0.0924,0.0921,0.0924,0.0924,0.0927,0.0927,0.0928,0.093,0.0931,0.093,0.093,0.093,0.093,0,0,0,0,0,0,0,0.091,0.0911,0.0917,0.0917,0.0917,0.0918,0.0919,0.092,0.0924,0.0922,0.0922,0.0922,0.0927,0.0928,0.0928,0.0931,0.093,0.093,0.093,0.093,0.0934,0.0934,0,0,0,0,0,0,0.091,0.0911,0.0917,0.0917,0.0914,0.0918,0.0919,0.092,0.0924,0.0924,0.0922,0.0923,0.0927,0.0928,0.0928,0.093,0.093,0.093,0.0931,0.0934,0.0934,0.0934,0,0,0,0,0,0,0.0909,0.091,0.0917,0.0914,0.0915,0.0918,0.092,0.092,0.0921,0.0924,0.0925,0.0923,0.0927,0.0928,0.093,0.093,0.093,0.0931,0.0934,0.0934,0.0934,0.0932,0,0,0,0,0,0,0.0909,0.091,0.0911,0.0914,0.0915,0.0918,0.092,0.092,0.0922,0.0922,0.0925,0.0926,0.0927,0.0929,0.093,0.093,0.0931,0.0934,0.0934,0.0934,0.0932,0.0932,0.0932,0,0,0,0,0,0.0909,0.091,0.0911,0.0911,0.0916,0.0918,0.0919,0.0921,0.0922,0.0922,0.0924,0.0925,0.093,0.093,0.093,0.093,0.0934,0.0934,0.0934,0.0932,0.0932,0.0932,0,0,0,0,0,0,0.0906,0.091,0.0911,0.0913,0.0915,0.0919,0.0919,0.0921,0.0923,0.0923,0.0926,0.0926,0.0928,0.0929,0.0929,0.0931,0.0932,0.0932,0.093,0.093,0.093,0.093,0.0931,0,0,0,0,0,0.0905,0.0907,0.0911,0.0912,0.0913,0.0916,0.0917,0.0919,0.0921,0.0922,0.0924,0.0926,0.0928,0.0929,0.0931,0.0932,0.0933,0.0933,0.0933,0.0932,0.0932,0.0933,0.0933,0.0934,0.0934,0.0934,0,0,0.0905,0.0907,0.0908,0.0912,0.0913,0.0915,0.0917,0.0919,0.092,0.0922,0.0924,0.0926,0.0928,0.093,0.0931,0.0931,0.0932,0.0932,0.0932,0.0932,0.0933,0.0933,0.0933,0.0934,0.0934,0.0934,0,0,0.0904,0.0906,0.0907,0.0909,0.0912,0.0914,0.0914,0.0918,0.0919,0.0921,0.0923,0.0924,0.0927,0.0929,0.093,0.093,0.0931,0.093,0.093,0.093,0.093,0.093,0.093,0.093,0.093,0.093,0.093,0,0.0902,0.0905,0.0908,0.0909,0.0911,0.0913,0.0915,0.0916,0.092,0.092,0.0921,0.0925,0.0927,0.0929,0.0929,0.093,0.093,0.093,0.093,0.093,0.093,0.093,0.093,0.093,0.093,0.093,0.093,0,0.0903,0.0905,0.0906,0.0909,0.0911,0.0912,0.0915,0.0916,0.0917,0.0919,0.0921,0.0923,0.0926,0.0926,0.0928,0.0928,0.0929,0.093,0.093,0.093,0.093,0.093,0.093,0.093,0.093,0.093,0,0,0.0901,0.0905,0.0906,0.0907,0.0911,0.0912,0.0914,0.0916,0.0917,0.0919,0.092,0.0923,0.0924,0.0925,0.0927,0.0927,0.0927,0.0928,0.0928,0.0928,0.0928,0.0927,0.0927,0.0928,0.0928,0.0928,0.0928,0,0.0901,0.0904,0.0906,0.0908,0.091,0.0912,0.0913,0.0916,0.0917,0.0919,0.0921,0.0922,0.0923,0.0924,0.0925,0.0927,0.0927,0.0927,0.0929,0.0929,0.0928,0.0927,0.0927,0.0927,0.0928,0.0928,0.0928,0,0.0901,0.0903,0.0905,0.0909,0.0909,0.091,0.0913,0.0914,0.0917,0.0918,0.092,0.0921,0.0923,0.0923,0.0926,0.0925,0.0926,0.0927,0.0927,0.0928,0.0929,0.0928,0.0927,0.0927,0.0928,0.0928,0.0928,0,0.0899,0.0902,0.0904,0.0905,0.0909,0.091,0.0912,0.0914,0.0915,0.0917,0.0918,0.092,0.0921,0.0923,0.0925,0.0925,0.0927,0.0928,0.0928,0.0928,0.0928,0.0928,0.0927,0.0929,0.0929,0.0929,0.0929,0,0.0898,0.09,0.0903,0.0905,0.0906,0.0909,0.091,0.0912,0.0914,0.0915,0.0917,0.0919,0.0921,0.0923,0.0924,0.0926,0.0926,0.0927,0.0928,0.0927,0.0927,0.0928,0.0928,0.0929,0.0929,0.0929,0.0929,0,0.0897,0.0899,0.0901,0.0905,0.0906,0.0907,0.0909,0.091,0.0912,0.0914,0.0915,0.0917,0.0919,0.0922,0.0924,0.0925,0.0927,0.0927,0.0926,0.0926,0.0926,0.0926,0.0926,0.0926,0.0927,0.0927,0.0927,0,0.0896,0.0897,0.0901,0.0902,0.0904,0.0905,0.0907,0.0909,0.0911,0.0913,0.0914,0.0916,0.0918,0.0921,0.0923,0.0925,0.0926,0.0925,0.0926,0.0925,0.0926,0.0926,0.0926,0.0925,0.0925,0.0925,0.0925,0,0.0895,0.0896,0.0898,0.0901,0.0902,0.0904,0.0907,0.0907,0.091,0.0912,0.0914,0.0915,0.0918,0.092,0.0922,0.0923,0.0925,0.0925,0.0925,0.0925,0.0924,0.0924,0.0925,0.0925,0.0925,0.0925,0.0925,0.0925,0.0894,0.0895,0.0898,0.09,0.0902,0.0904,0.0905,0.0907,0.0909,0.0911,0.0913,0.0915,0.0917,0.092,0.0921,0.0923,0.0923,0.0924,0.0924,0.0924,0.0924,0.0924,0.0923,0.0923,0.0923,0.0923,0.0923,0,0.0893,0.0895,0.0897,0.09,0.0902,0.0903,0.0905,0.0906,0.0908,0.091,0.0912,0.0914,0.0916,0.0919,0.0921,0.0922,0.0922,0.0922,0.0922,0.0922,0.0923,0.0923,0.0921,0.0921,0.0921,0.0921,0.0921,0.0921,0.0893,0.0895,0.0897,0.0899,0.0901,0.0903,0.0904,0.0906,0.0908,0.091,0.0912,0.0914,0.0916,0.0918,0.092,0.092,0.0921,0.0921,0.0921,0.0922,0.0922,0.0922,0.0922,0.0921,0.0921,0.0921,0.0921,0.0921]},{"header":{"parameterUnit":"m.s-1","parameterCategory":1,"la1":30.2991,"la2":30.254,"lo1":-89.0895,"lo2":-89.0444,"dy":0.0017,"dx":0.0017,"nx":28,"ny":28,"refTime":"2025-04-25T09:00:00:Z","depth":0,"parameterNumber":3,"parameterNumberName":"V-component_of_WINDS"},"data":[0,0,0,0,0,0,0,0,0,0,0,0,0,0,0,0,0,0,0,0,0,0,0,0,0,0,0,0,0,0,0,0,0,0,0,0,0,0,0,0,0,0,0,0,0,0,0,0,0,0,0,0,0,0,0,0,0,0,-0.4306,-0.4305,0,-0.428,-0.4279,-0.4279,-0.4276,-0.4276,-0.4277,-0.4277,-0.4248,-0.4247,-0.4246,0,0,0,0,0,0,0,0,0,0,0,0,0,-0.4351,-0.435,-0.4306,-0.4305,-0.4305,-0.428,-0.4279,-0.4279,-0.4276,-0.4276,-0.4277,-0.4277,-0.4248,-0.4247,-0.4246,0,0,0,0,0,0,0,0,0,0,0,0,0,-0.4329,-0.435,-0.4306,-0.4301,-0.43,-0.428,-0.4279,-0.4279,-0.4276,-0.4276,-0.4277,-0.4277,-0.4248,-0.4247,-0.4245,-0.4228,0,0,-0.4241,-0.424,0,0,0,0,0,0,0,0,-0.433,-0.4327,-0.4302,-0.4301,-0.43,-0.4282,-0.4284,-0.4262,-0.4276,-0.4285,-0.4277,-0.4277,-0.4258,-0.4256,-0.425,-0.4226,-0.4225,-0.424,-0.424,-0.4239,-0.4238,0,0,0,0,0,0,0,-0.4331,-0.4328,-0.4295,-0.4301,-0.43,-0.4299,-0.4296,-0.428,-0.427,-0.4284,-0.4284,-0.4281,-0.4258,-0.4252,-0.4249,-0.4225,-0.4241,-0.4239,-0.4238,-0.4238,-0.4184,-0.4184,0,0,0,0,0,0,-0.4334,-0.4329,-0.4296,-0.4295,-0.4316,-0.4298,-0.4295,-0.4287,-0.427,-0.4268,-0.4281,-0.4281,-0.4254,-0.4251,-0.4248,-0.4226,-0.4239,-0.4237,-0.4237,-0.4185,-0.4184,-0.4183,0,0,0,0,0,0,-0.4335,-0.4331,-0.4297,-0.4312,-0.4307,-0.4296,-0.4288,-0.4286,-0.428,-0.4267,-0.4265,-0.4276,-0.4254,-0.4251,-0.4233,-0.4225,-0.4237,-0.4235,-0.4185,-0.4184,-0.4184,-0.4181,0,0,0,0,0,0,-0.4336,-0.4332,-0.4325,-0.4312,-0.4307,-0.4283,-0.4287,-0.4285,-0.4278,-0.4278,-0.4262,-0.426,-0.4254,-0.4235,-0.4231,-0.4223,-0.4234,-0.4186,-0.4185,-0.4184,-0.4182,-0.4181,-0.4179,0,0,0,0,0,-0.4338,-0.4325,-0.4325,-0.4321,-0.4299,-0.4282,-0.4279,-0.4273,-0.4277,-0.427,-0.4262,-0.4261,-0.4227,-0.4233,-0.4229,-0.422,-0.4186,-0.4185,-0.4184,-0.4183,-0.4181,-0.4179,0,0,0,0,0,0,-0.4338,-0.4324,-0.4323,-0.4306,-0.4295,-0.4282,-0.4273,-0.4272,-0.426,-0.426,-0.4253,-0.4249,-0.4231,-0.4224,-0.4232,-0.4202,-0.4207,-0.4205,-0.4207,-0.4205,-0.4204,-0.4206,-0.4233,0,0,0,0,0,-0.4336,-0.4324,-0.4312,-0.4298,-0.4293,-0.4284,-0.4277,-0.4273,-0.4262,-0.4257,-0.4247,-0.4236,-0.4222,-0.4214,-0.4201,-0.4181,-0.4177,-0.4173,-0.4172,-0.4171,-0.4169,-0.4157,-0.4155,-0.418,-0.418,-0.418,0,0,-0.4331,-0.4322,-0.4315,-0.4298,-0.4289,-0.4277,-0.428,-0.4267,-0.4257,-0.4255,-0.4237,-0.423,-0.4216,-0.4198,-0.4189,-0.4191,-0.4161,-0.4169,-0.4168,-0.4167,-0.4156,-0.4153,-0.4151,-0.4179,-0.4179,-0.4179,0,0,-0.4317,-0.4309,-0.4296,-0.4288,-0.4275,-0.4269,-0.4266,-0.4253,-0.4248,-0.4231,-0.4228,-0.4216,-0.4193,-0.4184,-0.4176,-0.4157,-0.4155,-0.4153,-0.4146,-0.4135,-0.4132,-0.4131,-0.4123,-0.4121,-0.4151,-0.4151,-0.4151,0,-0.4312,-0.4294,-0.4289,-0.4276,-0.4268,-0.4266,-0.4252,-0.4244,-0.4228,-0.4222,-0.4225,-0.4196,-0.4186,-0.4165,-0.416,-0.4154,-0.415,-0.4154,-0.4133,-0.4131,-0.413,-0.4122,-0.412,-0.4151,-0.4151,-0.4151,-0.4151,0,-0.4289,-0.4277,-0.4268,-0.4253,-0.4244,-0.423,-0.4222,-0.4214,-0.4211,-0.4204,-0.4186,-0.4175,-0.416,-0.4154,-0.4151,-0.4132,-0.4134,-0.4135,-0.414,-0.4127,-0.412,-0.4117,-0.4151,-0.4151,-0.4151,-0.4151,0,0,-0.4273,-0.4256,-0.4252,-0.4245,-0.4231,-0.4221,-0.4207,-0.4192,-0.4185,-0.4173,-0.4161,-0.4142,-0.4143,-0.4134,-0.4129,-0.412,-0.4105,-0.4122,-0.4122,-0.4118,-0.4082,-0.408,-0.4077,-0.4104,-0.4103,-0.4103,-0.4083,0,-0.4256,-0.4233,-0.4228,-0.4206,-0.4194,-0.4192,-0.418,-0.4169,-0.4163,-0.4151,-0.4143,-0.413,-0.4133,-0.4127,-0.4117,-0.4109,-0.4097,-0.411,-0.4091,-0.409,-0.4094,-0.4074,-0.4072,-0.4053,-0.408,-0.4079,-0.4079,0,-0.4233,-0.4222,-0.42,-0.4187,-0.4182,-0.4171,-0.4157,-0.4146,-0.4134,-0.4129,-0.4119,-0.4116,-0.4101,-0.4107,-0.4085,-0.4094,-0.4086,-0.408,-0.4079,-0.4076,-0.4083,-0.4069,-0.4047,-0.4044,-0.4075,-0.4075,-0.4076,0,-0.4223,-0.4202,-0.4186,-0.418,-0.4165,-0.4157,-0.415,-0.4138,-0.413,-0.4117,-0.4111,-0.4097,-0.4089,-0.4078,-0.407,-0.4075,-0.4048,-0.4054,-0.4043,-0.4044,-0.4037,-0.4037,-0.4013,-0.4034,-0.4034,-0.4034,-0.4034,0,-0.4204,-0.419,-0.4181,-0.4171,-0.4155,-0.4149,-0.4134,-0.4127,-0.4116,-0.4104,-0.4101,-0.409,-0.4081,-0.4068,-0.4062,-0.4044,-0.4041,-0.4036,-0.4035,-0.4036,-0.4037,-0.403,-0.4031,-0.4033,-0.4033,-0.4033,-0.4033,0,-0.4189,-0.4183,-0.4165,-0.4152,-0.4148,-0.4137,-0.4126,-0.4115,-0.4109,-0.4094,-0.409,-0.4079,-0.4064,-0.4056,-0.4036,-0.4032,-0.4012,-0.4011,-0.4016,-0.4015,-0.4005,-0.4005,-0.3974,-0.3969,-0.3994,-0.3994,-0.3994,0,-0.4177,-0.4167,-0.4153,-0.4145,-0.4138,-0.4125,-0.4117,-0.411,-0.4101,-0.4086,-0.4077,-0.4062,-0.4049,-0.4025,-0.4015,-0.4,-0.3998,-0.3988,-0.3996,-0.3997,-0.3997,-0.3997,-0.3995,-0.3987,-0.3986,-0.3986,-0.3986,0,-0.4156,-0.4153,-0.4142,-0.4128,-0.4118,-0.4107,-0.4096,-0.409,-0.4081,-0.4071,-0.4056,-0.4046,-0.4026,-0.401,-0.3995,-0.3986,-0.3984,-0.3984,-0.398,-0.3981,-0.3984,-0.3981,-0.4011,-0.3984,-0.3984,-0.3985,-0.3985,-0.3985,-0.4142,-0.4132,-0.4121,-0.4107,-0.4099,-0.4088,-0.4078,-0.4071,-0.4058,-0.4042,-0.4039,-0.4022,-0.4009,-0.3988,-0.3979,-0.3965,-0.3967,-0.3963,-0.3961,-0.396,-0.3959,-0.3987,-0.3963,-0.3963,-0.3963,-0.3963,-0.3963,0,-0.412,-0.4113,-0.41,-0.4085,-0.4075,-0.4075,-0.4063,-0.4053,-0.4039,-0.4028,-0.4015,-0.3997,-0.3982,-0.3971,-0.3955,-0.3946,-0.3944,-0.3942,-0.3942,-0.394,-0.3959,-0.3963,-0.3943,-0.3943,-0.3943,-0.3943,-0.3943,-0.3943,-0.4107,-0.4091,-0.4086,-0.4065,-0.4058,-0.4042,-0.4035,-0.4025,-0.4016,-0.3996,-0.3983,-0.3977,-0.3965,-0.3948,-0.3934,-0.3931,-0.3925,-0.3922,-0.3919,-0.3937,-0.3939,-0.394,-0.3944,-0.3921,-0.3921,-0.3901,-0.3901,-0.3901]}]]